Location: Mason Neck State Park
(38.6428°N, 77.1981°W)
Time: 15:28:48
(UTC-05:00)

Daily predictions for brighter satellites

Satellite Brightness Start Highest point End
(mag) Time Altitude Azimuth Time Altitude Azimuth Time Altitude Azimuth
Cosmos 1833 Rocket 3.5 17:08:06 10° N 17:12:56 29° ENE 17:17:46 10° ESE
AQUARIUS 4.4 17:14:52 10° SE 17:19:10 47° ENE 17:23:29 10° N
MSX 4.2 17:13:45 10° S 17:19:30 73° WSW 17:25:18 10° NNW
CORIOLIS 4.4 17:16:40 10° SE 17:21:52 48° ENE 17:27:04 10° N
Cosmos 2297 4.2 17:16:36 10° S 17:21:53 41° ESE 17:27:14 10° NE
Cosmos 2278 Rocket 2.4 17:18:26 10° SSW 17:24:06 76° WNW 17:29:49 10° NNE
USA 116 4.2 17:24:25 10° NNE 17:28:26 40° E 17:31:58 10° SSE
Cosmos 1782 Rocket 4.2 17:26:03 10° NNE 17:29:59 32° ENE 17:33:55 10° SE
Cosmos 1814 Rocket 4.4 17:25:17 10° NNW 17:30:38 74° WSW 17:35:58 10° S
Cosmos 540 Rocket 4.0 17:26:00 10° N 17:30:47 37° ENE 17:35:33 10° SE
Meteor 1-14 Rocket 4.2 17:25:53 10° N 17:31:32 78° E 17:37:04 10° SSE
ALOS 3.6 17:28:39 10° ESE 17:31:47 18° ENE 17:34:56 10° NNE
USA 234 4.2 17:27:28 10° ENE 17:33:05 30° SE 17:38:40 10° S
YAOGAN 1 3.1 17:31:20 10° SE 17:35:18 37° ENE 17:39:18 10° N
SL-27 R/B 2.3 17:32:42 10° N 17:36:00 59° ENE 17:39:20 10° SSE
COSMO-SKYMED 1 3.4 17:33:52 10° NE 17:37:41 30° E 17:41:29 10° SSE
SMAP 3.0 17:33:19 10° SSE 17:37:57 79° ENE 17:42:37 10° N
Meteor 1-28 Rocket 3.1 17:35:35 10° NNE 17:39:16 67° E 17:42:57 10° S
CZ-4C R/B 3.7 17:33:15 10° NNW 17:39:23 30° NE 17:46:04 10° ESE
Cosmos 1503 Rocket 4.0 17:36:51 10° S 17:42:03 63° ESE 17:47:13 10° NNE
Ariane Rocket 3.1 17:37:31 10° SSE 17:42:37 85° WSW 17:47:43 10° NNW
Tiangong 1 2.5 17:42:17 10° SSW 17:44:14 19° SSE 17:45:29 14° ESE
Cosmos 1606 2.6 17:41:41 10° S 17:45:26 69° E 17:49:11 10° NNE
Cosmos 1441 Rocket 4.3 17:43:22 10° SSE 17:46:38 25° E 17:49:19 13° NE
Cosmos 841 Rocket 3.7 17:42:14 10° NNW 17:47:32 78° WSW 17:52:45 10° SSE
IRS-1A Rocket 4.3 17:43:50 10° SSE 17:49:35 69° ENE 17:55:15 10° N
Landsat 4 3.7 17:48:26 10° NNE 17:52:14 67° ESE 17:56:00 10° S
METEOR-M 4.3 17:47:17 10° SSE 17:52:25 51° ENE 17:57:35 10° N
Cosmos 1072 Rocket 4.5 17:49:15 10° S 17:55:24 67° E 18:01:41 10° NNE
CSL-04 Rocket 4.4 17:50:14 10° S 17:55:25 57° W 18:00:42 10° NNW
Cosmos 1703 Rocket 3.7 17:52:00 10° S 17:56:27 77° W 18:00:55 10° N
Cosmos 1484 Rocket 3.6 17:53:41 10° S 17:57:28 54° W 18:01:20 10° NNW
Cosmos 2221 Rocket 3.5 17:56:04 10° S 18:00:26 72° E 18:04:51 10° NNE
EO 1 Del DPAF 3.4 17:57:16 10° NNE 18:01:00 50° E 18:04:42 10° S
Cosmos 2034 Rocket 4.2 17:56:28 10° SSE 18:02:33 50° E 18:08:39 10° NNE
Cosmos 2151 Rocket 4.5 18:01:13 10° NNE 18:04:56 26° ENE 18:08:39 10° SE
Cosmos 2082 Rocket 2.1 17:59:57 10° NNW 18:05:39 75° ENE 18:11:16 10° SSE
ERS-2 2.0 18:03:06 10° SSE 18:06:45 65° ENE 18:10:24 10° N
SKYMED 3 4.5 18:03:27 10° NNE 18:07:47 67° E 18:12:05 10° S
OAO 3 Rocket 4.1 18:03:34 10° SW 18:08:08 40° SSE 18:10:55 21° ESE
MOS 1 4.2 18:03:19 10° SSE 18:08:56 65° ENE 18:14:35 10° N
CZ-4 R/B 1.9 18:05:09 10° S 18:08:56 57° W 18:12:44 10° NNW
Meteor 2-6 Rocket 4.1 18:07:15 10° S 18:12:41 87° E 18:18:18 10° N
Cosmos 1602 3.6 18:13:20 10° N 18:17:09 60° E 18:20:57 10° SSE
Okean 2 Rocket 3.0 18:13:24 10° N 18:17:57 74° E 18:22:27 10° SSE
USA 229 DEB 4.1 18:13:41 10° S 18:19:49 39° ESE 18:22:43 27° ENE
USA 229 4.1 18:13:48 10° S 18:19:55 39° ESE 18:22:46 27° ENE
Cosmos 1633 3.6 18:16:55 10° NNW 18:20:28 47° W 18:23:59 10° SSW
Cosmos 405 Rocket 2.6 18:18:23 10° S 18:22:11 86° W 18:25:14 15° N
SKYMED 2 3.7 18:21:28 10° N 18:25:49 76° WNW 18:30:08 10° SSW
Cosmos 1782 4.5 18:24:15 10° SW 18:27:56 34° WNW 18:31:38 10° NNW
Cosmos 1464 Rocket 4.2 18:23:14 10° SSW 18:29:19 72° W 18:35:29 10° N
BREEZE-M R/B 3.3 18:28:33 10° WNW 18:31:30 55° SW 18:35:53 13° SE
SPOT 3 Rocket 3.4 18:26:44 10° SSE 18:31:57 83° ENE 18:37:11 10° NNW
BREEZE-M DEB (TANK) 3.7 18:30:58 10° NW 18:32:12 26° N 18:32:12 26° N
Cosmos 44 Rocket 3.2 18:32:24 10° NNW 18:37:19 87° WSW 18:42:09 11° SSE
FENGYUN 3A 3.5 18:31:57 10° SSE 18:37:21 80° ENE 18:42:46 10° N
Cosmos 292 Rocket 3.9 18:36:29 10° NNW 18:41:14 74° WSW 18:45:57 10° S
GPS 2-05 Rocket1 3.6 18:39:06 10° WSW 18:41:40 41° SSW 18:41:40 41° SSW
Meteor 2-20 Rocket 4.3 18:38:21 10° N 18:44:27 72° E 18:50:30 10° SSE
ISS -1.4 18:41:48 10° S 18:42:42 16° S 18:42:42 16° S
Meteor 1-5 Rocket 4.1 18:39:36 10° N 18:44:49 55° ENE 18:49:59 10° SSE
Meteor 1-27 Rocket 4.0 18:42:20 10° SSW 18:48:13 75° W 18:54:11 10° N
Cosmos 44 4.1 18:52:07 10° NW 18:56:44 51° WSW 19:01:34 10° S
Cosmos 1833 Rocket 4.1 18:51:45 10° NW 18:56:55 38° WSW 19:02:04 10° S
Cosmos 2369 Rocket 2.8 18:53:34 10° S 18:57:34 39° SE 18:57:34 39° SE
Thor Agena Rocket 3.4 19:04:54 71° SSE 19:04:54 71° SSE 19:09:38 10° S
ALOS 3.4 19:04:25 10° S 19:08:51 44° W 19:13:20 10° NNW
USA 234 3.4 19:14:26 47° NNE 19:16:21 70° NW 19:22:50 10° WSW
Cosmos 1943 Rocket 4.2 19:18:04 10° S 19:19:04 15° S 19:19:04 15° S
CZ-4C R/B 3.1 19:21:13 10° NW 19:28:32 71° WSW 19:32:49 30° SSE
Cosmos 1634 Rocket 4.3 19:36:30 10° SSW 19:42:05 63° WSW 19:42:05 63° WSW
